This is the latest recevied weather packets stored in our database for station/object AF5AA. If no packets are shown the sender has not sent any weather packets the latest 10 day(s).
| Time | Temp. | Humidity | Pressure | Rain* | Wind** | Luminosity | Snow |
|---|---|---|---|---|---|---|---|
| 1777922221 | 25.56° C | 48% | 1011.9 hPa | 0 mm | - | 90 W/m² | - |
| 1777921916 | 26.11° C | 47% | 1012.1 hPa | 0 mm | - | 386 W/m² | - |
| 1777921612 | 25.56° C | 47% | 1012 hPa | 0 mm | - | 395 W/m² | - |
| 1777921309 | 25.56° C | 48% | 1012.1 hPa | 0 mm | - | 129 W/m² | - |
| 1777921005 | 25.56° C | 51% | 1012.2 hPa | 0 mm | - | 108 W/m² | - |
| 1777920702 | 25.56° C | 48% | 1012 hPa | 0 mm | - | 162 W/m² | - |
| 1777920398 | 25.56° C | 48% | 1012.2 hPa | 0 mm | - | 83 W/m² | - |
| 1777920093 | 25.56° C | 50% | 1012.3 hPa | 0 mm | - | 124 W/m² | - |
| 1777919790 | 25.56° C | 50% | 1012.5 hPa | 0 mm | - | 205 W/m² | - |
| 1777919488 | 25.56° C | 47% | 1012.5 hPa | 0 mm | - | 196 W/m² | - |
| 1777919186 | 25° C | 48% | 1012.9 hPa | 0 mm | - | 217 W/m² | - |
| 1777918883 | 25° C | 49% | 1013.1 hPa | 0 mm | - | 313 W/m² | - |
| 1777918580 | 25° C | 49% | 1013 hPa | 0 mm | - | 261 W/m² | - |
| 1777918278 | 25° C | 50% | 1013 hPa | 0 mm | - | 51 W/m² | - |
| 1777917977 | 25° C | 50% | 1013 hPa | 0 mm | - | 62 W/m² | - |
| 1777917675 | 25° C | 50% | 1013 hPa | 0 mm | - | 51 W/m² | - |
| 1777917372 | 24.44° C | 52% | 1012.9 hPa | 0 mm | - | 49 W/m² | - |
| 1777917069 | 24.44° C | 51% | 1013.3 hPa | 0 mm | - | 58 W/m² | - |
| 1777916767 | 24.44° C | 51% | 1013.5 hPa | 0 mm | - | 44 W/m² | - |
| 1777916463 | 23.89° C | 49% | 1013.6 hPa | 0 mm | - | 46 W/m² | - |
| 1777916160 | 24.44° C | 49% | 1013.7 hPa | 0 mm | - | 56 W/m² | - |
| 1777915858 | 24.44° C | 48% | 1013.6 hPa | 0 mm | - | 51 W/m² | - |
| 1777915554 | 24.44° C | 50% | 1013.8 hPa | 0 mm | - | 169 W/m² | - |
| 1777915250 | 24.44° C | 50% | 1013.7 hPa | 0 mm | - | 123 W/m² | - |
| 1777914947 | 23.89° C | 50% | 1013.6 hPa | 0 mm | - | 775 W/m² | - |
* Rain latest hour (hover to see other rain measurements)
** Current wind speed in m/s (hover to see current wind gust speed)